This is the latest recevied weather packets stored in our database for station/object IZ0VWB-3. If no packets are shown the sender has not sent any weather packets the latest 10 day(s).
| Time | Temp. | Humidity | Pressure | Rain* | Wind** | Luminosity | Snow |
|---|---|---|---|---|---|---|---|
| 1777564697 | 17.78° C | 46% | 1005.5 hPa | 0 mm | - | - | - |
| 1777564097 | 17.78° C | 43% | 1005.5 hPa | 0 mm | - | - | - |
| 1777563496 | 18.33° C | 44% | 1005.5 hPa | 0 mm | - | - | - |
| 1777562896 | 18.33° C | 45% | 1005.4 hPa | 0 mm | - | - | - |
| 1777562297 | 18.33° C | 45% | 1005.5 hPa | 0 mm | - | - | - |
| 1777561695 | 18.33° C | 45% | 1005.3 hPa | 0 mm | - | - | - |
| 1777561096 | 18.33° C | 45% | 1005.4 hPa | 0 mm | - | - | - |
| 1777560495 | 18.33° C | 46% | 1005.3 hPa | 0 mm | - | - | - |
| 1777559896 | 18.89° C | 45% | 1005.4 hPa | 0 mm | - | - | - |
| 1777559295 | 18.89° C | 45% | 1005.3 hPa | 0 mm | - | - | - |
| 1777558696 | 18.89° C | 45% | 1005.3 hPa | 0 mm | - | - | - |
| 1777558097 | 19.44° C | 44% | 1005.3 hPa | 0 mm | - | - | - |
| 1777557495 | 19.44° C | 44% | 1005.4 hPa | 0 mm | - | - | - |
| 1777556896 | 20° C | 44% | 1005.4 hPa | 0 mm | - | - | - |
| 1777556296 | 20° C | 42% | 1005.4 hPa | 0 mm | - | - | - |
| 1777555697 | 19.44° C | 43% | 1005.4 hPa | 0 mm | - | - | - |
| 1777555095 | 19.44° C | 43% | 1005.5 hPa | 0 mm | - | - | - |
| 1777554498 | 19.44° C | 43% | 1005.6 hPa | 0 mm | - | - | - |
| 1777553898 | 19.44° C | 45% | 1005.6 hPa | 0 mm | - | - | - |
| 1777553299 | 19.44° C | 45% | 1005.6 hPa | 0 mm | - | - | - |
| 1777552700 | 19.44° C | 45% | 1005.8 hPa | 0 mm | - | - | - |
| 1777552099 | 20° C | 46% | 1005.7 hPa | 0 mm | - | - | - |
| 1777551499 | 19.44° C | 47% | 1005.9 hPa | 0 mm | - | - | - |
| 1777550899 | 18.89° C | 47% | 1005.8 hPa | 0 mm | - | - | - |
| 1777550299 | 19.44° C | 48% | 1005.9 hPa | 0 mm | - | - | - |
* Rain latest hour (hover to see other rain measurements)
** Current wind speed in m/s (hover to see current wind gust speed)